Date String (YYYY-MM-DD hh:mm:ss) UTC,Instrument flags,Ambient pressure (hPa),Sample flow (lpm),Bypass flow (lpm),Sample temperature (°C),Ambient temperature (°C),ASC tube jacket temperature (°C),LED temperature (°C),Box temperature (°C),Sample RH (%),Span deviation,Mass concentration (μg/m³),Mass concentration (μg/m³),Mass concentration (μg/m³)
DateTimeUTC,F1_M11,P_M11,Q1_M11,Q2_M11,T1_M11,T2_M11,T3_M11,T4_M11,T5_M11,U1_M11,ZSPAN_M11,X0_M11,X2_M11,X1_M11
2021-11-01 12:00:00,,0829.6,5.00,0.00,24.2,23.3,00.0,33.2,26.0,20.0,0000.0,0009.53,0005.89,0005.50
2021-11-01 12:01:00,,0829.6,5.00,0.00,24.2,23.3,00.0,33.2,26.0,20.0,0000.0,0009.53,0005.89,0005.50
2021-11-01 12:02:00,,0829.6,4.99,0.00,24.2,23.3,00.0,33.2,26.0,20.0,0000.0,0009.51,0005.88,0005.49
2021-11-01 12:03:00,,0829.6,5.01,0.00,24.2,23.3,00.0,33.2,26.0,20.0,0000.0,0009.53,0005.88,0005.47
2021-11-01 12:04:00,,0829.6,5.00,0.00,24.1,23.3,00.0,33.2,26.0,20.1,0000.0,0009.54,0005.88,0005.47
2021-11-01 12:05:00,,0829.8,5.01,0.00,24.1,23.3,00.0,33.2,26.0,20.1,0000.0,0009.48,0005.87,0005.47
2021-11-01 12:06:00,,0829.8,5.00,0.00,24.1,23.3,00.0,33.2,26.0,20.1,0000.0,0009.53,0005.92,0005.50
2021-11-01 12:07:00,,0829.6,5.00,0.00,24.1,23.3,00.0,33.2,26.0,20.1,0000.0,0009.83,0005.96,0005.54
2021-11-01 12:08:00,,0829.6,4.99,0.00,24.1,23.3,00.0,33.2,26.0,20.1,0000.0,0009.49,0005.99,0005.58
2021-11-01 12:09:00,,0829.6,5.01,0.00,24.1,23.3,00.0,33.2,26.0,20.1,0000.0,0009.21,0006.02,0005.62
2021-11-01 12:10:00,,0829.6,5.00,0.00,24.1,23.3,00.0,33.2,26.0,20.1,0000.0,0008.94,0006.05,0005.66
2021-11-01 12:11:00,,0829.7,5.00,0.00,24.1,23.3,00.0,33.2,26.0,20.1,0000.0,0008.89,0006.05,0005.70
2021-11-01 12:12:00,,0829.6,5.02,0.00,24.1,23.3,00.0,33.2,26.0,20.1,0000.0,0008.92,0006.09,0005.74
2021-11-01 12:13:00,,0829.8,5.01,0.00,24.1,23.4,00.0,33.2,26.0,20.1,0000.0,0008.90,0006.11,0005.79
2021-11-01 12:14:00,,0829.6,4.98,0.00,24.2,23.3,00.0,33.2,26.0,20.1,0000.0,0009.02,0006.19,0005.84
2021-11-01 12:15:00,,0829.6,5.00,0.00,24.2,23.4,00.0,33.2,26.0,20.1,0000.0,0009.06,0006.23,0005.88
2021-11-01 12:16:00,,0829.6,5.00,0.00,24.1,23.4,00.0,33.2,26.0,20.1,0000.0,0009.10,0006.27,0005.92
2021-11-01 12:17:00,,0829.6,5.00,0.00,24.1,23.3,00.0,33.2,26.0,20.1,0000.0,0009.17,0006.28,0005.92
2021-11-01 12:18:00,,0829.6,5.00,0.00,24.2,23.4,00.0,33.2,26.0,20.1,0000.0,0008.73,0006.28,0005.91
2021-11-01 12:19:00,,0829.6,5.01,0.00,24.2,23.3,00.0,33.2,26.0,20.1,0000.0,0008.53,0006.28,0005.90
2021-11-01 12:20:00,,0829.6,4.98,0.00,24.2,23.3,00.0,33.2,26.0,20.1,0000.0,0008.49,0006.27,0005.90
2021-11-01 12:21:00,,0829.6,5.01,0.00,24.2,23.3,00.0,33.2,26.0,20.1,0000.0,0008.45,0006.25,0005.89
2021-11-01 12:22:00,,0829.8,5.00,0.00,24.2,23.3,00.0,33.2,26.0,20.0,0000.0,0008.37,0006.23,0005.88
2021-11-01 12:23:00,,0829.7,5.00,0.00,24.2,23.3,00.0,33.2,26.0,20.0,0000.0,0008.41,0006.20,0005.87
2021-11-01 12:24:00,,0829.7,5.01,0.00,24.2,23.3,00.0,33.2,26.0,20.0,0000.0,0008.56,0006.20,0005.86
2021-11-01 12:25:00,,0829.8,4.99,0.00,24.2,23.3,00.0,33.2,26.0,20.0,0000.0,0008.61,0006.20,0005.86
2021-11-01 12:26:00,,0829.8,5.02,0.00,24.2,23.3,00.0,33.2,26.0,20.0,0000.0,0008.63,0006.20,0005.86
2021-11-01 12:27:00,,0829.8,4.98,0.00,24.2,23.4,00.0,33.2,26.0,20.0,0000.0,0008.58,0006.19,0005.86
2021-11-01 12:28:00,,0829.8,5.00,0.00,24.2,23.4,00.0,33.2,26.0,20.0,0000.0,0008.53,0006.20,0005.87
2021-11-01 12:29:00,,0829.7,5.00,0.00,24.2,23.4,00.0,33.2,26.0,20.0,0000.0,0008.54,0006.20,0005.88
2021-11-01 12:30:00,,0829.8,4.99,0.00,24.2,23.3,00.0,33.2,26.0,20.0,0000.0,0008.59,0006.21,0005.89
2021-11-01 12:31:00,,0829.9,5.01,0.00,24.2,23.3,00.0,33.2,26.0,19.9,0000.0,0008.66,0006.22,0005.90
2021-11-01 12:32:00,,0829.6,4.99,0.00,24.2,23.3,00.0,33.2,26.0,19.9,0000.0,0008.70,0006.24,0005.91
2021-11-01 12:33:00,,0829.7,4.99,0.00,24.2,23.4,00.0,33.2,26.0,19.9,0000.0,0008.80,0006.28,0005.93
2021-11-01 12:34:00,,0829.7,4.98,0.00,24.2,23.3,00.0,33.2,26.0,19.9,0000.0,0008.74,0006.32,0005.94
2021-11-01 12:35:00,,0829.7,5.01,0.00,24.2,23.3,00.0,33.2,26.0,19.9,0000.0,0008.71,0006.32,0005.95
2021-11-01 12:36:00,,0829.7,5.00,0.00,24.2,23.4,00.0,33.2,26.0,20.0,0000.0,0009.03,0006.30,0005.96
2021-11-01 12:37:00,,0829.6,5.00,0.00,24.2,23.3,00.0,33.2,26.0,20.0,0000.0,0009.33,0006.34,0005.98
2021-11-01 12:38:00,,0829.6,5.01,0.00,24.2,23.3,00.0,33.2,26.0,20.0,-000.4,0009.42,0006.37,0006.00
2021-11-01 12:39:00,,0829.7,4.98,0.00,24.2,23.3,00.0,33.2,26.0,20.0,-000.7,0009.40,0006.37,0006.00
2021-11-01 12:40:00,,0829.7,5.01,0.00,24.2,23.3,00.0,33.2,26.0,20.0,-000.8,0009.42,0006.40,0006.02
2021-11-01 12:41:00,,0829.8,4.99,0.00,24.2,23.3,00.0,33.2,26.0,20.0,-000.7,0009.41,0006.42,0006.04
2021-11-01 12:42:00,,0829.8,5.01,0.00,24.2,23.3,00.0,33.2,26.0,20.0,-000.2,0009.38,0006.43,0006.06
2021-11-01 12:43:00,,0829.8,4.99,0.00,24.2,23.3,00.0,33.2,26.0,20.0,-000.0,0009.36,0006.43,0006.06
2021-11-01 12:44:00,,0829.8,5.01,0.00,24.2,23.3,00.0,33.2,26.0,20.1,0000.1,0009.33,0006.43,0006.06
2021-11-01 12:45:00,,0829.8,5.01,0.00,24.2,23.3,00.0,33.2,26.0,20.1,0000.0,0009.31,0006.44,0006.05
2021-11-01 12:46:00,,0829.8,5.00,0.00,24.2,23.3,00.0,33.2,26.0,20.1,0000.2,0009.51,0006.42,0006.03
2021-11-01 12:47:00,,0829.9,5.01,0.00,24.2,23.3,00.0,33.2,26.0,20.1,0000.0,0009.39,0006.39,0006.01
2021-11-01 12:48:00,,0829.9,4.99,0.00,24.2,23.3,00.0,33.2,26.0,20.1,0000.0,0009.14,0006.35,0006.00
2021-11-01 12:49:00,,0830.0,5.01,0.00,24.2,23.3,00.0,33.2,26.0,20.1,-000.2,0009.02,0006.32,0005.97
2021-11-01 12:50:00,,0830.1,5.00,0.00,24.2,23.3,00.0,33.2,26.0,20.1,0000.0,0008.94,0006.27,0005.93
2021-11-01 12:51:00,,0830.1,4.99,0.00,24.2,23.3,00.0,33.2,26.0,20.1,0000.0,0008.86,0006.19,0005.89
2021-11-01 12:52:00,,0830.1,5.01,0.00,24.2,23.3,00.0,33.2,26.0,20.1,0000.0,0008.79,0006.10,0005.82
2021-11-01 12:53:00,,0830.1,4.99,0.00,24.2,23.3,00.0,33.2,26.0,20.1,0000.0,0008.70,0006.01,0005.73
2021-11-01 12:54:00,,0830.1,5.00,0.00,24.2,23.3,00.0,33.2,26.0,20.1,0000.0,0008.66,0005.90,0005.64
2021-11-01 12:55:00,,0830.1,5.00,0.00,24.1,23.3,00.0,33.2,26.0,20.1,0000.0,0008.51,0005.75,0005.52
2021-11-01 12:56:00,,0830.1,5.00,0.00,24.1,23.3,00.0,33.2,26.0,20.1,0000.0,0008.32,0005.59,0005.40
2021-11-01 12:57:00,,0830.2,5.01,0.00,24.1,23.2,00.0,33.2,26.0,20.1,0000.0,0008.04,0005.47,0005.28
2021-11-01 12:58:00,,0830.2,5.00,0.00,24.1,23.2,00.0,33.2,25.9,20.1,0000.0,0007.48,0005.33,0005.15
2021-11-01 12:59:00,,0830.2,5.00,0.00,24.1,23.2,00.0,33.2,25.9,20.1,0000.0,0007.28,0005.19,0005.02
